Location: Mountain Grove
(34.0887°N, 86.6172°W)
Time: 23:53:15
(UTC+00:00)

Meteor 2-9 Rocket - Pass Details

Date: 14 July 2020
Orbit: 792 x 894 km, 81.3° (Epoch: 12 August)

Event Time Altitude Azimuth Distance (km) Brightness Sun altitude
Exits shadow 09:36:50 14° 205° (SSW) 2,053 5.7 -12.9°
Maximum altitude 09:41:12 54° 280° (W) 954 4.3 -12.2°
Drops below altitude 10° 09:46:25 10° 358° (N) 2,373 7.0 -11.3°
Sets 09:48:53 0° 3° (N) 3,315 7.9 -10.9°
